COSMOS 931

导读

COSMOS 931是苏联(CIS)于1977年7月20日8时发射的“宇宙”系列卫星。“宇宙”系列是苏联/俄罗斯涵盖军事航天器、科研卫星等多类型卫星的通用命名体系,该系列自1962年起持续发射,支撑航天技术验证与空间探索。作为系列中编号931的成员,COSMOS 931是冷战时期苏联航天活动的产物,延续了该系列多元航天任务定位,为苏联掌握空间技术、开展空间应用积累了重要经验。

Basic Information
目录编号:
10150
目录名称:
COSMOS 931
国际标识:
1977-068A
轨道中心:
EARTH
卫星名称:
COSMOS 931
卫星全名:
--
卫星状态:
在轨 (已飞行17868 天)
发射日期:
1977-07-20 UTC
国别 :
俄罗斯(独联体) (CIS)
星等 :
--
Orbit Information
数据来源 国际轨道数据 AOE轨道数据
星历时间 2026-06-20T14:23:31+0800
1天前
查看轨道信息
2026-06-20T23:00:00+0800
19小时前
查看轨道信息
半长轴 26540.336km 26540.362km
偏心率 0.5345261 0.534521
轨道倾角 70.906° 70.908°
近地点辐角 323.045° 323.033°
升交点赤经 55.597° 55.579°
平近点角 10.039° 269.303°
近地点 5975.696km 5975.844km
远地点 34348.702km 34348.606km
周期 717.165分钟 717.166分钟
每日圈数 2.007905 2.007902
Detailed Information
使用方式:
暂无
2D Orbit Map
3D Orbit Map
Orbit Altitude Analysis Chart
Orbit Inclination Analysis Chart
Orbit Comprehensive Analysis Chart
View Comprehensive Chart